User: anonymous   Login
Location: Unspecified
(0.0000°N, 0.0000°E)
Time: 13:31:32
(UTC+00:00)
Language:

GOES-R - Orbit

View from above orbital plane
View from above orbital plane
View from above satellite
View from above satellite

Ground track
Ground track

The orbit data is extracted from the following two-line orbital elements,

1 41866U 16071A   18320.05596605 -.00000245  00000-0  00000+0 0  9991
2 41866   0.0056 244.0737 0000449 321.3427 154.6114  1.00271849  7331
Epoch (UTC): 16 November 2018 01:20:35
Eccentricity: 0.0000449
inclination: 0.0056°
perigee height: 35784 km
apogee height: 35788 km
right ascension of ascending node: 244.0737°
argument of perigee: 321.3427°
revolutions per day: 1.00271849
mean anomaly at epoch: 154.6114°
orbit number at epoch: 733

The dashed part of the orbit path shows where the satellite is in the earth's shadow,  

DLR